Time,TemperatureF,DewpointF,PressureIn,WindDirection,WindDirectionDegrees,WindSpeedMPH,WindSpeedGustMPH,Humidity,HourlyPrecipIn,Conditions,Clouds,dailyrainin,SolarRadiationWatts/m^2,SoftwareType,DateUTC
2013-02-24 00:01:00,47.0,20.0,-100.00,WNW,291,0.0,0.0,34,0.00,,,0.00,1.000000,,2013-02-24 08:01:00,
2013-02-24 00:31:00,47.0,20.0,-100.00,WNW,291,0.0,0.0,34,0.00,,,0.00,1.000000,,2013-02-24 08:31:00,
2013-02-24 00:54:00,45.0,20.0,-100.00,WSW,240,0.0,0.0,36,0.00,,,-99.99,0.000000,,2013-02-24 08:54:00,
2013-02-24 01:01:00,45.0,20.0,-100.00,WSW,240,0.0,0.0,36,0.00,,,-99.99,0.000000,,2013-02-24 09:01:00,
2013-02-24 01:11:00,45.0,20.0,-100.00,WSW,240,0.0,0.0,36,0.00,,,-99.99,0.000000,,2013-02-24 09:11:00,
2013-02-24 01:21:00,45.0,20.0,-100.00,WSW,240,0.0,0.0,36,0.00,,,-99.99,0.000000,,2013-02-24 09:21:00,
2013-02-24 01:52:00,45.0,18.0,-100.00,SSW,201,0.0,0.0,34,0.00,,,0.00,1.000000,,2013-02-24 09:52:00,
2013-02-24 02:01:00,45.0,18.0,-100.00,SSW,201,0.0,0.0,34,0.00,,,0.00,1.000000,,2013-02-24 10:01:00,
2013-02-24 02:11:00,45.0,18.0,-100.00,SSW,201,0.0,0.0,34,0.00,,,0.00,1.000000,,2013-02-24 10:11:00,
2013-02-24 02:21:00,45.0,18.0,-100.00,SSW,201,0.0,0.0,34,0.00,,,0.00,1.000000,,2013-02-24 10:21:00,
2013-02-24 02:52:00,45.0,16.0,-100.00,WNW,288,0.0,0.0,31,0.00,,,0.00,0.000000,,2013-02-24 10:52:00,
2013-02-24 03:01:00,45.0,16.0,-100.00,WNW,288,0.0,0.0,31,0.00,,,0.00,0.000000,,2013-02-24 11:01:00,
2013-02-24 03:21:00,45.0,16.0,-100.00,WNW,288,0.0,0.0,31,0.00,,,0.00,0.000000,,2013-02-24 11:21:00,
2013-02-24 03:31:00,45.0,16.0,-100.00,WNW,288,0.0,0.0,31,0.00,,,0.00,0.000000,,2013-02-24 11:31:00,
2013-02-24 03:53:00,46.0,16.0,-100.00,WSW,244,0.0,0.0,30,0.00,,,0.00,1.000000,,2013-02-24 11:53:00,
2013-02-24 04:01:00,46.0,16.0,-100.00,WSW,244,0.0,0.0,30,0.00,,,0.00,1.000000,,2013-02-24 12:01:00,
2013-02-24 04:11:00,46.0,16.0,-100.00,WSW,244,0.0,0.0,30,0.00,,,0.00,1.000000,,2013-02-24 12:11:00,
2013-02-24 04:21:00,46.0,16.0,-100.00,WSW,244,0.0,0.0,30,0.00,,,0.00,1.000000,,2013-02-24 12:21:00,
2013-02-24 04:32:00,46.0,16.0,-100.00,WSW,244,0.0,0.0,30,0.00,,,0.00,1.000000,,2013-02-24 12:32:00,
2013-02-24 04:56:00,45.0,15.0,-100.00,NE,39,0.0,0.0,30,0.00,,,0.00,1.000000,,2013-02-24 12:56:00,
2013-02-24 05:08:00,45.0,15.0,-100.00,NE,39,0.0,0.0,30,0.00,,,0.00,1.000000,,2013-02-24 13:08:00,
2013-02-24 05:32:00,45.0,15.0,-100.00,NE,39,0.0,0.0,30,0.00,,,0.00,1.000000,,2013-02-24 13:32:00,
2013-02-24 05:54:00,46.0,15.0,-100.00,NNW,343,0.0,0.0,28,0.00,,,0.00,0.000000,,2013-02-24 13:54:00,
2013-02-24 06:03:00,46.0,15.0,-100.00,NNW,343,0.0,0.0,28,0.00,,,0.00,0.000000,,2013-02-24 14:03:00,
2013-02-24 06:12:00,46.0,15.0,-100.00,NNW,343,0.0,0.0,28,0.00,,,0.00,0.000000,,2013-02-24 14:12:00,
2013-02-24 06:23:00,46.0,15.0,-100.00,NNW,343,0.0,0.0,28,0.00,,,0.00,0.000000,,2013-02-24 14:23:00,
2013-02-24 06:32:00,46.0,15.0,-100.00,NNW,343,0.0,0.0,28,0.00,,,0.00,0.000000,,2013-02-24 14:32:00,
2013-02-24 06:54:00,45.0,16.0,-100.00,NNE,19,0.0,0.0,31,0.00,,,0.00,1.000000,,2013-02-24 14:54:00,
2013-02-24 07:02:00,45.0,16.0,-100.00,NNE,19,0.0,0.0,31,0.00,,,0.00,1.000000,,2013-02-24 15:02:00,
2013-02-24 07:12:00,45.0,16.0,-100.00,NNE,19,0.0,0.0,31,0.00,,,0.00,1.000000,,2013-02-24 15:12:00,
2013-02-24 07:22:00,45.0,16.0,-100.00,NNE,19,0.0,0.0,31,0.00,,,0.00,1.000000,,2013-02-24 15:22:00,
2013-02-24 07:31:00,45.0,16.0,-100.00,NNE,19,0.0,0.0,31,0.00,,,0.00,1.000000,,2013-02-24 15:31:00,
2013-02-24 07:53:00,47.0,16.0,-100.00,North,358,0.0,0.0,28,0.00,,,0.00,22.000000,,2013-02-24 15:53:00,
2013-02-24 08:01:00,47.0,16.0,-100.00,North,358,0.0,0.0,28,0.00,,,0.00,22.000000,,2013-02-24 16:01:00,
2013-02-24 08:11:00,47.0,16.0,-100.00,North,358,0.0,0.0,28,0.00,,,0.00,22.000000,,2013-02-24 16:11:00,
2013-02-24 08:21:00,47.0,16.0,-100.00,North,358,0.0,0.0,28,0.00,,,0.00,22.000000,,2013-02-24 16:21:00,
2013-02-24 08:31:00,47.0,16.0,-100.00,North,358,0.0,0.0,28,0.00,,,0.00,22.000000,,2013-02-24 16:31:00,
2013-02-24 08:52:00,49.0,14.0,-100.00,ENE,70,6.0,11.0,24,0.00,,,0.00,139.000000,,2013-02-24 16:52:00,
2013-02-24 09:01:00,49.0,14.0,-100.00,ENE,70,6.0,11.0,24,0.00,,,0.00,139.000000,,2013-02-24 17:01:00,
2013-02-24 09:11:00,49.0,14.0,-100.00,ENE,70,6.0,11.0,24,0.00,,,0.00,139.000000,,2013-02-24 17:11:00,
2013-02-24 09:21:00,49.0,14.0,-100.00,ENE,70,6.0,11.0,24,0.00,,,0.00,139.000000,,2013-02-24 17:21:00,
2013-02-24 09:31:00,49.0,14.0,-100.00,ENE,70,6.0,11.0,24,0.00,,,0.00,139.000000,,2013-02-24 17:31:00,
2013-02-24 09:52:00,52.0,14.0,-100.00,NNE,20,4.0,13.0,22,0.00,,,0.00,308.000000,,2013-02-24 17:52:00,
2013-02-24 10:01:00,52.0,14.0,-100.00,NNE,20,4.0,13.0,22,0.00,,,0.00,308.000000,,2013-02-24 18:01:00,
2013-02-24 10:11:00,52.0,14.0,-100.00,NNE,20,4.0,13.0,22,0.00,,,0.00,308.000000,,2013-02-24 18:11:00,
2013-02-24 10:21:00,52.0,14.0,-100.00,NNE,20,4.0,13.0,22,0.00,,,0.00,308.000000,,2013-02-24 18:21:00,
2013-02-24 10:31:00,52.0,14.0,-100.00,NNE,20,4.0,13.0,22,0.00,,,0.00,308.000000,,2013-02-24 18:31:00,
2013-02-24 10:52:00,54.0,14.0,-100.00,ENE,58,7.0,15.0,20,0.00,,,0.00,504.000000,,2013-02-24 18:52:00,
2013-02-24 11:01:00,54.0,14.0,-100.00,ENE,58,7.0,15.0,20,0.00,,,0.00,504.000000,,2013-02-24 19:01:00,
2013-02-24 11:11:00,54.0,14.0,-100.00,ENE,58,7.0,15.0,20,0.00,,,0.00,504.000000,,2013-02-24 19:11:00,
2013-02-24 11:22:00,54.0,14.0,-100.00,ENE,58,7.0,15.0,20,0.00,,,0.00,504.000000,,2013-02-24 19:22:00,
2013-02-24 11:31:00,54.0,14.0,-100.00,ENE,58,7.0,15.0,20,0.00,,,0.00,504.000000,,2013-02-24 19:31:00,
2013-02-24 11:52:00,58.0,21.0,-100.00,SSE,163,1.0,12.0,24,0.00,,,0.00,604.000000,,2013-02-24 19:52:00,
2013-02-24 12:02:00,58.0,21.0,-100.00,SSE,163,1.0,12.0,24,0.00,,,0.00,604.000000,,2013-02-24 20:02:00,
2013-02-24 12:11:00,58.0,21.0,-100.00,SSE,163,1.0,12.0,24,0.00,,,0.00,604.000000,,2013-02-24 20:11:00,
2013-02-24 12:21:00,58.0,21.0,-100.00,SSE,163,1.0,12.0,24,0.00,,,0.00,604.000000,,2013-02-24 20:21:00,
2013-02-24 12:31:00,58.0,21.0,-100.00,SSE,163,1.0,12.0,24,0.00,,,0.00,604.000000,,2013-02-24 20:31:00,
2013-02-24 12:52:00,59.0,21.0,-100.00,South,191,0.0,12.0,23,0.00,,,0.00,686.000000,,2013-02-24 20:52:00,
2013-02-24 13:01:00,59.0,21.0,-100.00,South,191,0.0,12.0,23,0.00,,,0.00,686.000000,,2013-02-24 21:01:00,
2013-02-24 13:11:00,59.0,21.0,-100.00,South,191,0.0,12.0,23,0.00,,,0.00,686.000000,,2013-02-24 21:11:00,
2013-02-24 13:21:00,59.0,21.0,-100.00,South,191,0.0,12.0,23,0.00,,,0.00,686.000000,,2013-02-24 21:21:00,
2013-02-24 13:31:00,59.0,21.0,-100.00,South,191,0.0,12.0,23,0.00,,,0.00,686.000000,,2013-02-24 21:31:00,
2013-02-24 13:52:00,62.0,20.0,-100.00,South,170,0.0,0.0,20,0.00,,,0.00,689.000000,,2013-02-24 21:52:00,
2013-02-24 14:01:00,62.0,20.0,-100.00,South,170,0.0,0.0,20,0.00,,,0.00,689.000000,,2013-02-24 22:01:00,
2013-02-24 14:11:00,62.0,20.0,-100.00,South,170,0.0,0.0,20,0.00,,,0.00,689.000000,,2013-02-24 22:11:00,
2013-02-24 14:21:00,62.0,20.0,-100.00,South,170,0.0,0.0,20,0.00,,,0.00,689.000000,,2013-02-24 22:21:00,
2013-02-24 14:31:00,62.0,20.0,-100.00,South,170,0.0,0.0,20,0.00,,,0.00,689.000000,,2013-02-24 22:31:00,
2013-02-24 14:52:00,62.0,20.0,-100.00,West,262,3.0,16.0,20,0.00,,,0.00,635.000000,,2013-02-24 22:52:00,
2013-02-24 15:02:00,62.0,20.0,-100.00,West,262,3.0,16.0,20,0.00,,,0.00,635.000000,,2013-02-24 23:02:00,
2013-02-24 15:11:00,62.0,20.0,-100.00,West,262,3.0,16.0,20,0.00,,,0.00,635.000000,,2013-02-24 23:11:00,
2013-02-24 15:21:00,62.0,20.0,-100.00,West,262,3.0,16.0,20,0.00,,,0.00,635.000000,,2013-02-24 23:21:00,
2013-02-24 15:31:00,62.0,20.0,-100.00,West,262,3.0,16.0,20,0.00,,,0.00,635.000000,,2013-02-24 23:31:00,
2013-02-24 15:52:00,60.0,30.0,-100.00,West,272,8.0,16.0,32,0.00,,,0.00,521.000000,,2013-02-24 23:52:00,
2013-02-24 16:01:00,60.0,30.0,-100.00,West,272,8.0,16.0,32,0.00,,,0.00,521.000000,,2013-02-25 00:01:00,
2013-02-24 16:11:00,60.0,30.0,-100.00,West,272,8.0,16.0,32,0.00,,,0.00,521.000000,,2013-02-25 00:11:00,
2013-02-24 16:21:00,60.0,30.0,-100.00,West,272,8.0,16.0,32,0.00,,,0.00,521.000000,,2013-02-25 00:21:00,
2013-02-24 16:31:00,60.0,30.0,-100.00,West,272,8.0,16.0,32,0.00,,,0.00,521.000000,,2013-02-25 00:31:00,
2013-02-24 16:52:00,56.0,28.0,-100.00,West,279,10.0,16.0,34,0.00,,,0.00,358.000000,,2013-02-25 00:52:00,
2013-02-24 17:01:00,56.0,28.0,-100.00,West,279,10.0,16.0,34,0.00,,,0.00,358.000000,,2013-02-25 01:01:00,
2013-02-24 17:11:00,56.0,28.0,-100.00,West,279,10.0,16.0,34,0.00,,,0.00,358.000000,,2013-02-25 01:11:00,
2013-02-24 17:21:00,56.0,28.0,-100.00,West,279,10.0,16.0,34,0.00,,,0.00,358.000000,,2013-02-25 01:21:00,
2013-02-24 17:31:00,56.0,28.0,-100.00,West,279,10.0,16.0,34,0.00,,,0.00,358.000000,,2013-02-25 01:31:00,
2013-02-24 17:52:00,53.0,29.0,-100.00,NW,305,7.0,14.0,40,0.00,,,0.00,171.000000,,2013-02-25 01:52:00,
2013-02-24 18:01:00,53.0,29.0,-100.00,NW,305,7.0,14.0,40,0.00,,,0.00,171.000000,,2013-02-25 02:01:00,
2013-02-24 18:11:00,53.0,29.0,-100.00,NW,305,7.0,14.0,40,0.00,,,0.00,171.000000,,2013-02-25 02:11:00,
2013-02-24 18:21:00,53.0,29.0,-100.00,NW,305,7.0,14.0,40,0.00,,,0.00,171.000000,,2013-02-25 02:21:00,
2013-02-24 18:31:00,53.0,29.0,-100.00,NW,305,7.0,14.0,40,0.00,,,0.00,171.000000,,2013-02-25 02:31:00,
2013-02-24 18:52:00,52.0,21.0,-100.00,WNW,294,6.0,10.0,29,0.00,,,0.00,17.000000,,2013-02-25 02:52:00,
2013-02-24 19:01:00,52.0,21.0,-100.00,WNW,294,6.0,10.0,29,0.00,,,0.00,17.000000,,2013-02-25 03:01:00,
2013-02-24 19:11:00,52.0,21.0,-100.00,WNW,294,6.0,10.0,29,0.00,,,0.00,17.000000,,2013-02-25 03:11:00,
2013-02-24 19:21:00,52.0,21.0,-100.00,WNW,294,6.0,10.0,29,0.00,,,0.00,17.000000,,2013-02-25 03:21:00,
2013-02-24 19:31:00,52.0,21.0,-100.00,WNW,294,6.0,10.0,29,0.00,,,0.00,17.000000,,2013-02-25 03:31:00,
2013-02-24 19:52:00,55.0,11.0,-100.00,NW,320,0.0,12.0,17,0.00,,,0.00,0.000000,,2013-02-25 03:52:00,
2013-02-24 20:01:00,55.0,11.0,-100.00,NW,320,0.0,12.0,17,0.00,,,0.00,0.000000,,2013-02-25 04:01:00,
2013-02-24 20:52:00,54.0,17.0,-100.00,East,92,0.0,0.0,23,-99.99,,,0.00,1.000000,,2013-02-25 04:52:00,
2013-02-24 21:01:00,54.0,17.0,-100.00,East,92,0.0,0.0,23,-99.99,,,0.00,1.000000,,2013-02-25 05:01:00,
2013-02-24 21:52:00,52.0,17.0,-100.00,ESE,119,0.0,0.0,25,-99.99,,,0.00,0.000000,,2013-02-25 05:52:00,
2013-02-24 22:02:00,52.0,17.0,-100.00,ESE,119,0.0,0.0,25,-99.99,,,0.00,0.000000,,2013-02-25 06:02:00,
2013-02-24 22:52:00,50.0,32.0,-100.00,West,266,0.0,8.0,49,0.00,,,0.00,1.000000,,2013-02-25 06:52:00,
2013-02-24 23:01:00,50.0,32.0,-100.00,West,266,0.0,8.0,49,0.00,,,0.00,1.000000,,2013-02-25 07:01:00,
2013-02-24 23:11:00,50.0,32.0,-100.00,West,266,0.0,8.0,49,0.00,,,0.00,1.000000,,2013-02-25 07:11:00,
2013-02-24 23:21:00,50.0,32.0,-100.00,West,266,0.0,8.0,49,0.00,,,0.00,1.000000,,2013-02-25 07:21:00,
2013-02-24 23:31:00,50.0,32.0,-100.00,West,266,0.0,8.0,49,0.00,,,0.00,1.000000,,2013-02-25 07:31:00,
2013-02-24 23:52:00,49.0,32.0,-100.00,NW,319,0.0,0.0,52,0.00,,,0.00,0.000000,,2013-02-25 07:52:00,